Regional Weather Roundup
Issued by NWS Raleigh/Durham, NC

Home | Current Version | Previous Version | Text Only | Print | Product List | Glossary On
Versions: 1 2 3 4 5 6 7 8 9 10 11 12 13 14 15 16 17 18 19 20 21 22 23 24 25 26 27
000
ASUS42 KRAH 281710
RWRRAH
NORTH CAROLINA WEATHER ROUNDUP
NATIONAL WEATHER SERVICE RALEIGH NC
100 PM EDT TUE MAR 28 2017

NOTE: "FAIR" INDICATES FEW OR NO CLOUDS BELOW 12,000 FEET WITH NO
SIGNIFICANT WEATHER AND/OR OBSTRUCTIONS TO VISIBILITY.

NCZ001-053-055-056-065-067-281800-
WESTERN NORTH CAROLINA

CITY           SKY/WX    TMP DP  RH WIND       PRES   REMARKS
ASHEVILLE      PTSUNNY   67  50  54 N12G21    29.98F
JEFFERSON      CLOUDY    56  47  72 W8        29.99F
MORGANTON      CLOUDY    71  51  50 NW10      30.00S
HICKORY        CLOUDY    71  51  49 NW15G25   29.94F
RUTHERFORDTON  MOSUNNY   74  53  47 W3        29.94F
MOUNT AIRY     MOSUNNY   66  60  81 SW3       29.95F
BOONE          MOSUNNY   56  48  76 W8        30.02R
$$

NCZ021-022-025-041-071-084-088-281800-
CENTRAL NORTH CAROLINA

CITY           SKY/WX    TMP DP  RH WIND       PRES   REMARKS
CHARLOTTE      MOSUNNY   75  57  53 VRB5      29.93F
GREENSBORO     PTSUNNY   71  58  63 W8        29.92F
WINSTON-SALEM  PTSUNNY   67  54  63 VRB3      29.95F
RALEIGH-DURHAM PTSUNNY   70  59  68 W10G20    29.93F
FORT BRAGG     SUNNY     74  61  64 SW7       29.91F
FAYETTEVILLE   MOSUNNY   76  62  62 S13       29.92F
BURLINGTON     MOSUNNY   73  58  59 W8        29.91F
LAURINBURG     SUNNY     76  63  64 SW10      29.93F
$$

NCZ011-015-027-028-043-044-047-080-103-281800-
NORTHEASTERN NORTH CAROLINA

CITY           SKY/WX    TMP DP  RH WIND       PRES   REMARKS
ROCKY MT-WILSO CLOUDY    66  65  96 S7        29.93F
GREENVILLE     CLOUDY    64  64 100 SW5       29.96F
WASHINGTON     LGT RAIN  63  61  94 S6        29.95F
ELIZABETH CITY LGT RAIN  67  60  78 W9        29.93F
MANTEO         MOSUNNY   71  58  63 W14G24    29.95F
CAPE HATTERAS  MOSUNNY   74  62  66 SW10      29.96F HAZE
$$

NCZ078-087-090-091-093-098-101-281800-
SOUTHEASTERN NORTH CAROLINA

CITY           SKY/WX    TMP DP  RH WIND       PRES   REMARKS
LUMBERTON      PTSUNNY   73  64  73 S12       29.93F
GOLDSBORO      PTSUNNY   66  66 100 S3        29.92F
KINSTON        CLOUDY    64  63  94 S8        29.94F
KENANSVILLE    LGT RAIN  66  63  88 CALM      29.94F
NEW BERN       RAIN      64  62  93 W5        29.98F
CHERRY POINT   PTSUNNY   68  62  81 SW7       29.98F
BEAUFORT       LGT RAIN  67  62  84 W6        29.96F
JACKSONVILLE   NOT AVBL
WILMINGTON     CLOUDY    77  61  57 S10       29.95F
$$





USA.gov is the U.S. government's official web portal to all federal, state and local government web resources and services.